Погода в Юджине

США     44°03′02″N   123°05′29″W
темп.,
°C
ветер,
м/с
пор.,
м/с
влажн.,
%
обл.,
%
осадки,
мм/ч
давл.,
гПа
погр.,
м
15 мая, сб
сб1523:00+11з11940 0.0 101611
02:00+8зсз11972 0.0 101810
05:00+6зюз00988 0.0 101810
08:00+10сз118621 0.0 1018226
11:00+18сз34480 0.0 1017909
14:00+23ссз45350 0.0 10151234
17:00+23с47340 0.0 10131320
20:00+17сз11650 0.0 101312
16 мая, вс
вс1623:00+11зсз00890 0.0 101510
02:00+9ю11950 0.0 101510
05:00+8юв00970 0.0 101610
08:00+12сз10802 0.0 1016225
11:00+20сз23475 0.0 1015789
14:00+24сз34290 0.0 10141333
17:00+24ссз34340 0.0 10121559
20:00+18сз11700 0.0 101311
17 мая, пн
пн1723:00+12зюз11910 0.0 101516
02:00+9юз11972 0.0 101610
05:00+7зюз00987 0.0 101710
08:00+11зсз008441 0.0 1017289
11:00+19зсз125330 0.0 1017941
14:00+23з35345 0.0 10142083
17:00+20з5533100 0.0 10151476
20:00+13з3759100 0.0 1018337
18 мая, вт
вт1823:00+7ю21895 0.0 102022
02:00+6юв219770 0.0 102023
05:00+8юв1181100 0.0 102074
08:00+10зюз1276100 0.0 1020247
11:00+13зюз136957 0.1 1020895
14:00+19зсз353069 0.1 10172558
17:00+17зсз5429100 0.1 10172159
20:00+12зсз365389 0.0 1018557
19 мая, ср
ср1923:00+8зюз117299 0.0 101922
02:00+7юз1178100 0.0 101915
05:00+5ю119188 0.0 101911
08:00+9зюз117184 0.0 1019446
11:00+12ссз2260100 0.5 10171323
14:00+13зсз3365100 1.4 10161417
17:00+13ссз246664 3.3 10151173
20:00+9с137956 1.0 101589